DW5533 Weather Reports


Display with metric or nautical units.
time (UTC)temp
F
wind
direction
speed
MPH
gust
MPH
rain 1hr
in
rain 24hr
in
rain mn
in
humidity
%
barometer
mb
20260506191508 49 50 0.0 3.0 0.00 0.04 0.00 98 1003.2
20260506190059 50 360 0.0 1.0 0.00 0.04 0.00 98 1003.4
20260506184601 51 360 0.0 0.0 0.00 0.04 0.00 98 1003.3
20260506183055 51 274 0.0 1.0 0.00 0.04 0.00 98 1003.3
20260506181552 53 320 0.0 3.0 0.00 0.04 0.00 98 1003.6
20260506180033 56 85 0.0 0.0 0.00 0.04 0.00 98 1003.9
20260506174530 56 85 0.0 0.0 0.00 0.04 0.00 98 1003.9
20260506173030 56 85 0.0 0.0 0.00 0.04 0.00 98 1003.9
20260506171542 56 85 0.0 0.0 0.00 0.04 0.00 98 1003.9
20260506170025 55 85 0.0 0.0 0.00 0.04 0.00 98 1003.9
20260506164525 55 85 0.0 0.0 0.00 0.04 0.00 98 1004.0
20260506163037 55 85 0.0 0.0 0.00 0.04 0.00 98 1004.1
20260506161521 55 85 0.0 0.0 0.00 0.04 0.00 98 1004.3
20260506160023 54 85 0.0 0.0 0.00 0.04 0.00 98 1004.6
20260506154522 54 85 0.0 0.0 0.00 0.04 0.00 98 1004.9
20260506153015 54 85 0.0 0.0 0.00 0.04 0.00 98 1005.2
20260506151514 53 85 0.0 0.0 0.00 0.04 0.00 98 1005.3
20260506150013 53 85 0.0 0.0 0.00 0.04 0.00 98 1005.5
20260506144511 53 85 0.0 0.0 0.00 0.04 0.00 98 1005.5
20260506143016 54 85 0.0 0.0 0.00 0.04 0.00 98 1005.5
20260506141510 53 85 0.0 0.0 0.00 0.04 0.00 98 1005.7
20260506140010 53 85 0.0 0.0 0.00 0.04 0.00 98 1005.6
20260506134508 53 85 0.0 0.0 0.00 0.04 0.00 98 1005.5
20260506133008 53 85 0.0 0.0 0.00 0.04 0.00 98 1005.6
20260506131506 52 85 0.0 0.0 0.00 0.04 0.00 98 1006.2
20260506130006 53 85 0.0 0.0 0.00 0.04 0.00 98 1006.0
20260506124505 53 85 0.0 0.0 0.00 0.04 0.00 98 1006.1
20260506123005 53 37 0.0 0.0 0.00 0.04 0.00 98 1005.9
20260506121504 53 37 0.0 0.0 0.00 0.04 0.00 98 1006.1
20260506120004 52 37 0.0 0.0 0.00 0.04 0.00 98 1005.9
20260506114502 52 37 0.0 0.0 0.00 0.04 0.00 98 1005.9
20260506113002 52 37 0.0 0.0 0.00 0.04 0.00 98 1006.0
20260506111501 52 37 0.0 0.0 0.00 0.04 0.00 98 1006.2
20260506110003 52 37 0.0 0.0 0.00 0.04 0.00 98 1006.1
20260506104600 52 37 0.0 0.0 0.00 0.04 0.00 98 1006.4
20260506103100 52 37 0.0 0.0 0.00 0.04 0.00 98 1006.3
20260506101559 52 37 0.0 0.0 0.00 0.04 0.00 98 1006.3
20260506100058 52 37 0.0 0.0 0.00 0.04 0.00 98 1006.3
20260506094557 52 37 0.0 0.0 0.00 0.04 0.00 97 1006.5
20260506093111 52 37 0.0 0.0 0.00 0.04 0.00 98 1006.5
20260506091556 52 37 0.0 0.0 0.00 0.04 0.00 98 1006.5
20260506090103 52 37 0.0 0.0 0.00 0.04 0.00 98 1006.7
20260506084555 52 37 0.0 0.0 0.00 0.04 0.00 97 1006.7
20260506083053 52 37 0.0 0.0 0.00 0.04 0.00 97 1006.7
20260506081552 52 37 0.0 0.0 0.00 0.04 0.00 97 1006.4
20260506073059 52 37 0.0 0.0 0.00 0.04 0.00 97 1007.3
20260506071544 52 37 0.0 0.0 0.00 0.04 0.00 97 1006.8
20260506061555 53 37 0.0 0.0 0.00 0.04 0.00 96 1007.2
20260506044519 57 46 3.0 5.0 0.00 0.04 0.00 90 1006.9
20260506043017 58 163 0.0 0.0 0.00 0.04 0.00 90 1005.9
20260506041514 58 163 0.0 0.0 0.00 0.04 0.00 89 1005.6
20260506040017 58 111 0.0 0.0 0.00 0.04 0.00 89 1005.6
20260506034511 58 111 0.0 0.0 0.00 0.04 0.04 89 1005.5
20260506033010 58 111 0.0 1.0 0.00 0.04 0.04 89 1005.4
20260506031510 57 112 0.0 0.0 0.00 0.04 0.04 91 1005.6
20260506030008 56 112 0.0 0.0 0.00 0.04 0.04 93 1005.5
20260506024507 56 112 0.0 0.0 0.00 0.04 0.04 94 1005.4
20260506023005 56 112 0.0 0.0 0.00 0.04 0.04 94 1005.1
20260506021505 56 112 0.0 0.0 0.00 0.04 0.04 94 1005.1
20260506020004 56 112 0.0 0.0 0.00 0.04 0.04 93 1005.1
20260506014507 56 112 0.0 0.0 0.00 0.04 0.04 93 1005.1
20260506013100 57 112 0.0 0.0 0.00 0.04 0.04 93 1005.1
20260506011602 57 112 0.0 0.0 0.00 0.04 0.04 93 1005.1
20260506010104 57 112 0.0 0.0 0.00 0.04 0.04 93 1005.0
20260506004558 57 112 0.0 0.0 0.00 0.04 0.04 94 1004.9
20260506003057 57 112 0.0 0.0 0.00 0.04 0.04 95 1004.9
20260506001605 57 112 0.0 0.0 0.00 0.04 0.04 94 1004.5
20260506000119 57 112 0.0 0.0 0.00 0.04 0.04 94 1004.4
20260505234551 57 112 0.0 0.0 0.00 0.04 0.04 94 1004.2
20260505233054 57 112 0.0 0.0 0.00 0.04 0.04 94 1004.1
20260505231555 58 112 0.0 0.0 0.00 0.04 0.04 94 1004.1
20260505230051 58 112 0.0 0.0 0.00 0.04 0.04 94 1004.1
20260505224550 58 112 0.0 0.0 0.00 0.04 0.04 94 1004.1
20260505223046 58 112 0.0 0.0 0.01 0.04 0.04 95 1003.9
20260505221550 58 112 0.0 0.0 0.03 0.04 0.04 94 1003.7
20260505214545 59 115 0.0 0.0 0.04 0.04 0.04 91 1003.9
20260505213036 60 157 0.0 1.0 0.03 0.03 0.03 87 1004.2
20260505211550 60 167 0.0 5.0 0.01 0.01 0.01 82 1003.7